Location: Rounton
(54.4000°N, 1.3500°W)
Time: 22:35:16
(UTC+00:00)

Vanguard 1 Rocket - Pass Details

Date: 08 December 2021
Orbit: 651 x 4224 km, 34.3° (Epoch: 16 January)

Event Time Altitude Azimuth Distance (km) Brightness Sun altitude
Rises 06:10:06 0° 262° (W) 5,576 - -16.5°
Exits shadow 06:13:23 - 253° (WSW) 5,091 10.7 -16.1°
Reaches altitude 10° 06:13:54 10° 251° (WSW) 5,031 10.7 -16.0°
Maximum altitude 06:26:23 29° 199° (SSW) 4,843 11.0 -14.3°
Drops below altitude 10° 06:44:33 10° 151° (SSE) 7,309 12.8 -11.8°
Sets 06:51:53 0° 142° (SE) 8,461 13.5 -10.8°
